Home > Weather > Suzhou > Past weeks

Flag for China Past Weather in Suzhou, Jiangsu, China — Yesterday and Last 2 Weeks

Now
79 °F

Fog.


Feels Like: 82 °F
Forecast: 74 / 83 °F
Wind: 6 mph from Southeast

Location: Shanghai Hongqiao Airport

Current Time: Jun 28, 2016 at 2:04:57 PM

Latest Report: Jun 28, 2016 at 1:30 PM


Visibility: 3 mi

Pressure: 29.74 "Hg

Humidity: 89%

Dew Point: 75 °F

Location of SuzhouLocation

Past Weather in Suzhou — Graph

°F

Suzhou Temperature Yesterday

Maximum temperature yesterday: 75 °F (at 10:30 AM)
Minimum temperature yesterday: 70 °F (at 12:00 AM)
Average temperature yesterday: 73 °F

High & Low Weather Summary for the Past Weeks

 TemperatureHumidityPressure
High95 °F (Jun 23, 3:30 PM)100% (Jun 14, 4:30 AM)29.92 "Hg (Jun 14, 4:30 AM)
Low68 °F (Jun 17, 4:30 AM)49% (Jun 14, 12:30 PM)29.50 "Hg (Jun 15, 2:00 AM)
Average79 °F82%29.70 "Hg
* Reported Jun 13 1:00 PM — Jun 28 1:00 PM, Suzhou, Weather by CustomWeather, © 2016

Note: Actual official high and low records may vary slightly from our data, if they occured in-between our weather recording intervals... More about our weather records

Advertising

Suzhou Weather History for the Previous 24 Hours

Scroll right to see more
 ConditionsComfort  
Time TempWeatherWind HumidityBarometerVisibility
1:00 PM
Tue, Jun 28
79 °FPartly sunny.6 mph89%29.77 "Hg4 mi
12:30 PM79 °FPartly sunny.6 mph89%29.74 "Hg4 mi
12:00 PM77 °FPartly sunny.8 mph94%29.77 "Hg4 mi
11:30 AM77 °FPartly sunny.8 mph94%29.77 "Hg4 mi
11:00 AM77 °FSprinkles. Partly sunny.6 mph94%29.77 "Hg4 mi
10:30 AM77 °FScattered clouds.6 mph89%29.80 "Hg5 mi
10:00 AM75 °FScattered clouds.3 mph94%29.80 "Hg4 mi
9:30 AM75 °FSprinkles. Scattered clouds.3 mph94%29.80 "Hg4 mi
9:00 AM73 °FSprinkles. Fog.6 mph100%29.80 "Hg2 mi
8:30 AM73 °FThunderstorms. Fog.3 mph100%29.80 "Hg2 mi
8:00 AM73 °FStrong thunderstorms. Fog.3 mph94%29.77 "Hg1 mi
7:30 AM73 °FSprinkles. Fog.3 mph94%29.77 "Hg2 mi
7:00 AM73 °FSprinkles. Fog.3 mph94%29.77 "Hg2 mi
6:30 AM73 °FSprinkles. Fog.3 mph94%29.74 "Hg2 mi
6:00 AM73 °FSprinkles. Fog.1 mph94%29.74 "Hg2 mi
5:30 AM73 °FSprinkles. Fog.No wind94%29.74 "Hg2 mi
5:00 AM73 °FOvercast.1 mph94%29.74 "Hg5 mi
4:30 AM73 °FSprinkles. Overcast.3 mph94%29.74 "HgN/A
4:00 AM73 °FSprinkles. Overcast.No wind94%29.71 "HgN/A
3:30 AM73 °FOvercast.1 mph94%29.71 "HgN/A
3:00 AM73 °FOvercast.3 mph94%29.71 "HgN/A
2:30 AM73 °FLow clouds.3 mph94%29.71 "HgN/A
2:00 AM73 °FLow clouds.3 mph94%29.71 "HgN/A
1:30 AM73 °FLow clouds.1 mph100%29.71 "HgN/A
1:00 AM73 °FLow clouds.3 mph94%29.74 "HgN/A
12:30 AM73 °FLow clouds.1 mph100%29.74 "HgN/A
12:00 AM73 °FLow clouds.1 mph94%29.74 "HgN/A
11:30 PM
Mon, Jun 27
73 °FLow clouds.3 mph94%29.74 "HgN/A
11:00 PM73 °FLow clouds.1 mph94%29.74 "HgN/A
10:30 PM73 °FLow clouds.3 mph94%29.77 "HgN/A
10:00 PM73 °FMostly cloudy.3 mph94%29.77 "HgN/A
9:30 PM73 °FLow clouds.3 mph94%29.77 "HgN/A
9:00 PM73 °FOvercast.3 mph100%29.74 "HgN/A
8:30 PM73 °FOvercast.3 mph94%29.74 "HgN/A
8:00 PM73 °FOvercast.3 mph94%29.74 "HgN/A
7:30 PM73 °FOvercast.1 mph94%29.71 "HgN/A
7:00 PM73 °FFog.3 mph94%29.71 "Hg2 mi
6:30 PM73 °FFog.3 mph94%29.71 "Hg2 mi
6:00 PM73 °FFog.3 mph94%29.71 "Hg2 mi
5:30 PM73 °FSprinkles. Fog.6 mph94%29.71 "Hg2 mi
5:00 PM73 °FSprinkles. Fog.3 mph100%29.71 "Hg2 mi
4:30 PM73 °FSprinkles. Fog.8 mph100%29.71 "Hg2 mi
4:00 PM75 °FSprinkles. Fog.3 mph94%29.71 "Hg2 mi
3:30 PM75 °FSprinkles. Fog.3 mph94%29.71 "Hg2 mi
3:00 PM75 °FSprinkles. Fog.3 mph94%29.71 "Hg2 mi
2:30 PM75 °FSprinkles. Fog.3 mph94%29.71 "Hg2 mi
2:00 PM75 °FSprinkles. Fog.6 mph94%29.71 "Hg2 mi
Weather by CustomWeather, © 2016

See weather overviewHow to use our weather pages